Regional Weather Roundup
Issued by NWS

Home | Current Version | Previous Version | Text Only | Print | Product List | Glossary Off
Versions: 1 2 3 4 5 6 7 8 9 10 11 12 13 14 15 16 17 18 19 20 21 22 23 24 25 26 27 28 29 30 31 32 33 34 35 36 37 38 39 40 41 42 43 44 45 46 47 48 49 50

000
ASUS43 KDTX 051201
RWRMI
MICHIGAN HOURLY REGIONAL WEATHER ROUNDUP
NATIONAL WEATHER SERVICE DETROIT/PONTIAC MI
800 AM EDT THU MAY 05 2016

NOTE: "FAIR" INDICATES FEW OR NO CLOUDS BELOW 12,000 FEET WITH NO
SIGNIFICANT WEATHER AND/OR OBSTRUCTION TO VISIBILITY.

MIZ047>049-052>055-059>063-066>070-074>076-081>083-051300-
SOUTHEAST LOWER MICHIGAN

CITY           SKY/WX    TMP DP  RH WIND       PRES   REMARKS
ADRIAN         SUNNY     47  43  86 NE17      29.82R
6HR MIN TEMP:  44; 6HR MAX TEMP:  48; 6HR PCP: TRACE;

ALMA           SUNNY     44  42  94 N8        29.89R
ANN ARBOR      SUNNY     47  42  83 N10       29.82R
BAD AXE        MOSUNNY   44  43  98 N10       29.87R
CARO           MOSUNNY   46  43  91 N7        29.86R
DETROIT CITY   SUNNY     47  40  76 N10       29.81R
6HR MIN TEMP:  43; 6HR MAX TEMP:  49;

DETROIT        PTSUNNY   48  43  82 N9        29.81R
6HR MIN TEMP:  44; 6HR MAX TEMP:  50; 6HR PCP: TRACE;

FLINT          SUNNY     49  43  80 N8        29.85R
6HR MIN TEMP:  46; 6HR MAX TEMP:  49;

GROSSE ILE     SUNNY     48  43  81 N9        29.79R
HILLSDALE      CLOUDY    45  41  87 N13       29.83R
HOWELL         CLOUDY    46  44  93 N6        29.85R
6HR MIN TEMP:  45; 6HR MAX TEMP:  46;


CITY           SKY/WX    TMP DP  RH WIND       PRES   REMARKS
JACKSON        CLOUDY    46  42  86 N9G22     29.85R
6HR MIN TEMP:  45; 6HR MAX TEMP:  47; 6HR PCP:  0.01;

LAMBERTVILLE   PTSUNNY   47  43  84 N8        29.81R
6HR MIN TEMP:  46; 6HR MAX TEMP:  49;

LANSING        CLOUDY    45  42  89 N14       29.88R
6HR MIN TEMP:  45; 6HR MAX TEMP:  47;

LAPEER         FAIR      44  41  89 CALM      29.85R
6HR MIN TEMP:  40; 6HR MAX TEMP:  44;

MASON          CLOUDY    45  42  91 N9        29.87R
MONROE         MOSUNNY   47  43  88 N9        29.80R
6HR MIN TEMP:  44; 6HR MAX TEMP:  49;

MT. CLEMENS    SUNNY     47  44  88 N10       29.81R
6HR MIN TEMP:  42; 6HR MAX TEMP:  47;

PONTIAC        MOSUNNY   45  42  89 N8        29.82R
6HR MIN TEMP:  42; 6HR MAX TEMP:  47;

PORT HOPE        N/A     44  42  93 N9        29.86R
6HR MIN TEMP:  42; 6HR MAX TEMP:  44;

PORT HURON     SUNNY     46  41  81 N6        29.83R
TRI CITIES     SUNNY     47  43  86 N9        29.89R
6HR MIN TEMP:  43; 6HR MAX TEMP:  47;

MIDLAND        FAIR      45  43  93 N6        29.89R
6HR MIN TEMP:  42; 6HR MAX TEMP:  45;

TROY           SUNNY     48  43  82 N7        29.83R
SAGINAW HB     SUNNY     46  43  87 N9        29.87R
$$
MIZ043>046-050>051-056>058-064>065-071>073-077>080-051300-
SOUTHWEST LOWER MICHIGAN

CITY           SKY/WX    TMP DP  RH WIND       PRES   REMARKS
BATTLE CREEK   CLOUDY    45  42  89 N10       29.88R
6HR MIN TEMP:  45; 6HR MAX TEMP:  47;

BENTON HARBOR  CLOUDY    45  40  82 VRB5      29.90R
6HR MIN TEMP:  43; 6HR MAX TEMP:  45;

BIG RAPIDS     CLOUDY    40  37  89 N5        29.92R
6HR MIN TEMP:  38; 6HR MAX TEMP:  42;

COLDWATER      CLOUDY    46  43  91 N9        29.85R
6HR MIN TEMP:  42; 6HR MAX TEMP:  46;

FREMONT        CLOUDY    39  39 100 N7        29.92R WCI  34
HOLLAND        CLOUDY   N/A N/A N/A N3        29.92R
GRAND RAPIDS   PTSUNNY   45  41  86 N8        29.90R
6HR MIN TEMP:  44; 6HR MAX TEMP:  46;

IONIA          FAIR      44  42  90 N8        29.89R
6HR MIN TEMP:  43; 6HR MAX TEMP:  45;

KALAMAZOO      CLOUDY    46  41  82 N8        29.88R
6HR MIN TEMP:  45; 6HR MAX TEMP:  47; 6HR PCP: TRACE;

LUDINGTON      CLOUDY    39  38  93 N3        29.97R
6HR MIN TEMP:  37; 6HR MAX TEMP:  40;

MARSHALL       CLOUDY    45  42  89 N6        29.86R
6HR MIN TEMP:  44; 6HR MAX TEMP:  47;

MOUNT PLEASANT   N/A    N/A N/A N/A MISG        N/A
MUSKEGON       SUNNY     42  35  76 N12       29.93R
6HR MIN TEMP:  40; 6HR MAX TEMP:  42;

$$
MIZ016>042-051300-
NORTHERN LOWER MICHIGAN

CITY           SKY/WX    TMP DP  RH WIND       PRES   REMARKS
ALPENA         CLOUDY    45  42  89 N8        29.93R
6HR MIN TEMP:  40; 6HR MAX TEMP:  45;

BEAVER ISLAND  SUNNY     39  37  91 NW5       29.98S
6HR MIN TEMP:  36; 6HR MAX TEMP:  39;

BELLAIRE       CLOUDY    41  37  87 CALM      29.97R
6HR MIN TEMP:  39; 6HR MAX TEMP:  42;

CADILLAC       CLOUDY    39  38  97 N7        29.93R FOG     WCI  34
CHARLEVOIX     SUNNY     40  39  97 NW8       30.00R WCI  35
FRANKFORT      MOSUNNY   40  38  92 CALM      29.98R
GAYLORD        CLOUDY    41  39  93 VRB5      29.93R FOG
6HR MIN TEMP:  41; 6HR MAX TEMP:  42;

HARBOR SPRINGS MOSUNNY   42  39  89 CALM      29.96R
HOUGHTON LAKE  CLOUDY    43  40  89 N5        29.93R
6HR MIN TEMP:  42; 6HR MAX TEMP:  43;

MANISTEE       CLOUDY    41  36  81 N6        29.97S
OSCODA         CLOUDY    45  43  93 N12       29.90R
6HR MIN TEMP:  42; 6HR MAX TEMP:  45;

PELLSTON       CLOUDY    41  39  93 W7        29.97R
6HR MIN TEMP:  32; 6HR MAX TEMP:  41;

ROGERS CITY    SUNNY     44  41  90 N5        29.95R
TRAVERSE CITY  PTSUNNY   42  37  82 N5        29.96R
6HR MIN TEMP:  40; 6HR MAX TEMP:  42;

$$
MIZ007>008-015-051300-
EASTERN UPPER MICHIGAN

CITY           SKY/WX    TMP DP  RH WIND       PRES   REMARKS
KINROSS          N/A     41  39  93 N12       29.96R
6HR MIN TEMP:  39; 6HR MAX TEMP:  43;

MACKINAC ISLAN CLOUDY    41  41 100 N8        29.96R
6HR MIN TEMP:  38; 6HR MAX TEMP:  42;

NEWBERRY       SUNNY     36  35  97 N5        29.98R WCI  32
6HR MIN TEMP:  33; 6HR MAX TEMP:  36;

S. S. MARIE    CLOUDY    42  39  89 NW8       29.96R
6HR MIN TEMP:  39; 6HR MAX TEMP:  44;

MUNISING         N/A     38  34  85 NW8       30.01R WCI  32
6HR MIN TEMP:  31; 6HR MAX TEMP:  39;

$$
MIZ004>006-011>014-085-051300-
CENTRAL UPPER MICHIGAN

CITY           SKY/WX    TMP DP  RH WIND       PRES   REMARKS
MANISTIQUE     SUNNY     36  34  92 N7        29.99S WCI  31
6HR MIN TEMP:  32; 6HR MAX TEMP:  36;

ESCANABA       MOSUNNY   34  30  86 N7        30.02R WCI  28
6HR MIN TEMP:  34; 6HR MAX TEMP:  36;

MENOMINEE      SUNNY     37  32  81 N7        30.03  WCI  32
6HR MIN TEMP:  30; 6HR MAX TEMP:  37;

SAWYER-GWINN   SUNNY     34  32  93 N6        29.99R WCI  29
$$
MIZ001>003-009>011-084-051300-
WESTERN UPPER MICHIGAN

CITY           SKY/WX    TMP DP  RH WIND       PRES   REMARKS
IRON MOUNTAIN  SUNNY     34  30  85 CALM      30.00R
6HR MIN TEMP:  27; 6HR MAX TEMP:  34;

HOUGHTON       SUNNY     36  31  82 NW3       30.00R
6HR MIN TEMP:  28; 6HR MAX TEMP:  36;

COPPER HARBOR    N/A     36  33  89 W3        30.01R
6HR MIN TEMP:  32; 6HR MAX TEMP:  36;

IRONWOOD         N/A     34  32  93 CALM      30.01R
6HR MIN TEMP:  28; 6HR MAX TEMP:  34;

$$

ABBREVIATIONS USED IN REMARKS
   TC - TEMPERATURE IN CELSIUS
  WCI - WIND CHILL INDEX
   HX - HEAT INDEX
  VSB - VISIBILITY





USA.gov is the U.S. government's official web portal to all federal, state and local government web resources and services.